Regional Weather Roundup
Issued by NWS

Home | Current Version | Previous Version | Graphics & Text | Print | Product List | Glossary Off
Versions: 1 2 3 4 5 6 7 8 9 10 11 12 13 14 15 16 17 18 19 20 21 22 23 24 25 26 27 28 29 30 31 32 33 34 35 36 37 38 39 40 41 42 43 44 45 46 47 48 49 50

000
ASUS43 KLSX 221910
RWRMO

WEATHER SUMMARY FOR MISSOURI
NATIONAL WEATHER SERVICE SPRINGFIELD MO
200 PM CDT SAT JUL 22 2017

NOTE: "FAIR" INDICATES FEW OR NO CLOUDS BELOW 12,000 FEET WITH NO
       SIGNIFICANT WEATHER AND/OR OBSTRUCTIONS TO VISIBILITY.
       CURRENT SKY AND/OR WEATHER CONDITIONS ARE NOT AVAILABLE FOR
       CHILLICOTHE AND FARMINGTON.

MOZ001>031-035>038-043-044-053-054-222000-
...NORTHERN AND WESTERN MISSOURI...

CITY           SKY/WX    TMP DP  RH WIND       PRES   REMARKS
KANSAS CTY INT MOSUNNY   95  76  53 SW6       29.83S HX 108
KANSAS C DTWN  SUNNY     96  75  50 W12       29.80F HX 108
LEE`S SUMMIT   SUNNY     96  74  48 W10       29.83F HX 107
ST JOSEPH      SUNNY     95  79  59 NW7       29.81F HX 112
CHILLICOTHE      N/A     94  79  61 NW5       29.82S HX 111
KIRKSVILLE     MOSUNNY   93  77  59 SW10G16   29.82F HX 107

$$
MOZ066>068-077>081-088>096-101>105-222000-
...SOUTHWEST MISSOURI...

CITY           SKY/WX    TMP DP  RH WIND       PRES   REMARKS
SPRINGFIELD    SUNNY     96  72  45 SW12      29.91F HX 104
JOPLIN         SUNNY     99  73  43 SW15      29.89F HX 109
BRANSON        MOSUNNY   95  70  43 SW8       29.96F HX 101

$$
MOZ032>034-039>042-045>050-055>058-069>072-222000-
...CENTRAL MISSOURI...

CITY           SKY/WX    TMP DP  RH WIND       PRES   REMARKS
COLUMBIA       SUNNY     99  72  41 SW20      29.82F HX 108
JEFFERSON CITY SUNNY     98  74  45 SW16      29.81F HX 109
ROLLA          SUNNY     95  76  53 SW12      29.88F HX 108
SEDALIA        SUNNY     96  77  54 SW15G22   29.84F HX 111
WHITEMAN AFB   MOSUNNY   97  72  44 SW16      29.81F HX 106
WARRENSBURG    SUNNY     95  70  43 SW10      29.82S HX 101
OSAGE BEACH    SUNNY     99  71  40 W9        29.86F HX 107

$$
MOZ051-052-059>065-222000-
...EAST CENTRAL MISSOURI...

CITY           SKY/WX    TMP DP  RH WIND       PRES   REMARKS
ST LOUIS INTL  SUNNY    101  73  40 S17G26    29.81F HX 112
SPIRIT OF STL  SUNNY     99  74  44 S9G20     29.79F HX 110
ST CHARLES     SUNNY     98  74  45 SW17G25   29.78F HX 109

$$
MOZ072>076-082>087-097>100-106>115-222000-
...SOUTH CENTRAL AND SOUTHEAST MISSOURI...

CITY           SKY/WX    TMP DP  RH WIND       PRES   REMARKS
CAPE GIRARDEAU SUNNY     94  73  50 S12       29.88F HX 103
FARMINGTON     SUNNY     96  76  52 S15G21    29.88F HX 109
POPLAR BLUFF   SUNNY     93  78  61 S14       29.90F HX 108
WEST PLAINS    SUNNY     94  71  47 SW10      29.96F HX 101

$$




USA.gov is the U.S. government's official web portal to all federal, state and local government web resources and services.